Tracking 19795 objects as of 20-Jul-2019
HD Live streaming from Space Station
objects crossing your sky now

SCOUT B DEB

Track SCOUT B DEB now!
10-day predictions


NORAD ID: 29167
Int'l Code: 1965-063R
Perigee: 1,153.7 km
Apogee: 2,336.1 km
Inclination: 69.3 °
Period: 121.3 minutes
Semi major axis: 8115 km
RCS: 0.0071 m2 (small)
Launch date: August 10, 1965
Source: United States (US)
Launch site: WALLOPS ISLAND (WLPIS)

Note: This is SATELLITE DEBRIS
aabbcc
Your satellite tracking list
Your tracking list is empty




NASA's NSSDC Master Catalog

Two Line Element Set (TLE):
1 29167U 65063R   14036.51789049 -.00000017 +00000-0 +10000-3 0  9995
2 29167 069.2759 071.8636 0728468 047.4448 318.7255 11.87407906274391
Source of the keplerian elements: AFSPC